When you browse on this site, cookies collect data to enhance your experience and personalize the content and advertising you see.
Visit our Privacy Policy to learn more. By continuing to use the site, you agree to this use of cookies and data.
  • En España
  • Lista de países
  • Para 7 días
  • Temperatura del agua
  • Mapa Satelital
  • El tiempo en el mapa
  • Informadores
  • user-avatar
    Iniciar sesión

    Tiempo cada hora Sana

    Hoy, 17 Junio, Lunes

    Tiempo Temperatura Precipitaciones Viento Presión Humedad
    00:00 +25°C° 0.1 mm 1 mps 580 mmHg 41%
    01:00 +24°C° 0 mm 1 mps 580 mmHg 43%
    02:00 +23°C° 0 mm 1 mps 579 mmHg 45%
    03:00 +21°C° 0 mm 0 mps 578 mmHg 47%
    04:00 +21°C° 0 mm 0 mps 579 mmHg 47%
    05:00 +21°C° 0 mm 0 mps 579 mmHg 47%
    06:00 +22°C° 0 mm 1 mps 579 mmHg 46%
    07:00 +24°C° 0 mm 2 mps 580 mmHg 37%
    08:00 +26°C° 0 mm 3 mps 581 mmHg 28%
    09:00 +28°C° 0 mm 4 mps 582 mmHg 19%
    10:00 +28°C° 0 mm 4 mps 582 mmHg 19%
    11:00 +29°C° 0 mm 4 mps 582 mmHg 18%
    12:00 +30°C° 0 mm 5 mps 583 mmHg 18%
    13:00 +30°C° 0.1 mm 5 mps 582 mmHg 18%
    14:00 +30°C° 0.1 mm 5 mps 582 mmHg 19%
    15:00 +30°C° 0.1 mm 5 mps 581 mmHg 20%
    16:00 +29°C° 0.4 mm 4 mps 581 mmHg 25%
    17:00 +28°C° 0.4 mm 4 mps 581 mmHg 30%
    18:00 +27°C° 0.4 mm 4 mps 581 mmHg 35%
    19:00 +26°C° 0.3 mm 3 mps 581 mmHg 38%
    20:00 +25°C° 0.3 mm 2 mps 581 mmHg 42%
    21:00 +24°C° 0.3 mm 2 mps 580 mmHg 46%
    22:00 +24°C° 0 mm 1 mps 580 mmHg 47%
    23:00 +24°C° 0 mm 1 mps 580 mmHg 47%

    Mañana, 18 Junio, Martes

    Tiempo Temperatura Precipitaciones Viento Presión Humedad
    00:00 +24°C° 0 mm 1 mps 580 mmHg 48%
    01:00 +23°C° 0 mm 1 mps 580 mmHg 49%
    02:00 +23°C° 0 mm 1 mps 579 mmHg 50%
    03:00 +22°C° 0 mm 1 mps 579 mmHg 52%
    04:00 +22°C° 0 mm 1 mps 579 mmHg 52%
    05:00 +22°C° 0 mm 1 mps 579 mmHg 52%
    06:00 +22°C° 0 mm 1 mps 579 mmHg 52%
    07:00 +23°C° 0 mm 1 mps 580 mmHg 45%
    08:00 +25°C° 0 mm 2 mps 581 mmHg 38%
    09:00 +26°C° 0 mm 2 mps 582 mmHg 31%
    10:00 +27°C° 0 mm 3 mps 582 mmHg 27%
    11:00 +28°C° 0 mm 4 mps 582 mmHg 22%
    12:00 +29°C° 0 mm 5 mps 582 mmHg 18%
    13:00 +30°C° 0.1 mm 6 mps 582 mmHg 18%
    14:00 +30°C° 0.1 mm 6 mps 582 mmHg 17%
    15:00 +30°C° 0.1 mm 6 mps 582 mmHg 17%
    16:00 +30°C° 0.2 mm 6 mps 581 mmHg 20%
    17:00 +29°C° 0.2 mm 6 mps 581 mmHg 23%
    18:00 +28°C° 0.2 mm 6 mps 580 mmHg 26%
    19:00 +27°C° 0.1 mm 5 mps 581 mmHg 29%
    20:00 +27°C° 0.1 mm 4 mps 581 mmHg 32%
    21:00 +26°C° 0.1 mm 3 mps 581 mmHg 35%
    22:00 +25°C° 0 mm 2 mps 580 mmHg 37%
    23:00 +25°C° 0 mm 2 mps 580 mmHg 40%

    Pasado mañana, 19 Junio, Miércoles

    Tiempo Temperatura Precipitaciones Viento Presión Humedad
    00:00 +24°C° 0 mm 2 mps 580 mmHg 42%
    01:00 +24°C° 0 mm 1 mps 579 mmHg 43%
    02:00 +23°C° 0 mm 1 mps 579 mmHg 44%
    03:00 +23°C° 0 mm 1 mps 578 mmHg 45%
    04:00 +22°C° 0 mm 1 mps 578 mmHg 44%
    05:00 +22°C° 0 mm 1 mps 578 mmHg 44%
    06:00 +22°C° 0 mm 1 mps 578 mmHg 43%
    07:00 +24°C° 0 mm 2 mps 579 mmHg 34%
    08:00 +26°C° 0 mm 3 mps 581 mmHg 26%
    09:00 +28°C° 0 mm 4 mps 582 mmHg 17%
    10:00 +29°C° 0 mm 5 mps 582 mmHg 16%
    11:00 +29°C° 0 mm 6 mps 582 mmHg 15%
    12:00 +30°C° 0 mm 6 mps 582 mmHg 14%
    13:00 +30°C° 0 mm 6 mps 582 mmHg 15%
    14:00 +30°C° 0 mm 5 mps 581 mmHg 16%
    15:00 +30°C° 0 mm 5 mps 581 mmHg 17%
    16:00 +30°C° 0 mm 5 mps 581 mmHg 18%
    17:00 +29°C° 0 mm 5 mps 581 mmHg 19%
    18:00 +29°C° 0 mm 5 mps 581 mmHg 21%
    19:00 +28°C° 0.2 mm 4 mps 581 mmHg 26%
    20:00 +26°C° 0.2 mm 3 mps 581 mmHg 32%
    21:00 +25°C° 0.2 mm 2 mps 580 mmHg 38%
    22:00 +25°C° 0.1 mm 2 mps 580 mmHg 43%
    23:00 +24°C° 0.1 mm 2 mps 580 mmHg 47%

    20 Junio, Jueves

    Tiempo Temperatura Precipitaciones Viento Presión Humedad
    00:00 +24°C° 0.1 mm 2 mps 579 mmHg 51%
    01:00 +23°C° 0 mm 2 mps 579 mmHg 53%
    02:00 +23°C° 0 mm 1 mps 578 mmHg 55%
    03:00 +22°C° 0 mm 1 mps 578 mmHg 57%
    04:00 +22°C° 0 mm 1 mps 578 mmHg 58%
    05:00 +22°C° 0 mm 1 mps 578 mmHg 58%
    06:00 +22°C° 0 mm 1 mps 578 mmHg 59%
    07:00 +23°C° 0 mm 1 mps 579 mmHg 49%
    08:00 +25°C° 0 mm 1 mps 580 mmHg 40%
    09:00 +26°C° 0 mm 1 mps 581 mmHg 31%
    10:00 +27°C° 0 mm 1 mps 581 mmHg 27%
    11:00 +28°C° 0 mm 2 mps 581 mmHg 24%
    12:00 +29°C° 0 mm 2 mps 581 mmHg 20%
    13:00 +28°C° 0.1 mm 2 mps 581 mmHg 23%
    14:00 +28°C° 0.1 mm 2 mps 580 mmHg 26%
    15:00 +27°C° 0.1 mm 2 mps 579 mmHg 30%
    16:00 +27°C° 0 mm 3 mps 579 mmHg 31%
    17:00 +27°C° 0 mm 4 mps 579 mmHg 33%
    18:00 +27°C° 0 mm 4 mps 580 mmHg 35%
    19:00 +26°C° 0.1 mm 4 mps 580 mmHg 41%
    20:00 +25°C° 0.1 mm 4 mps 580 mmHg 46%
    21:00 +24°C° 0.1 mm 3 mps 580 mmHg 51%
    22:00 +22°C° 0 mm 3 mps 579 mmHg 53%
    23:00 +23°C° 0 mm 2 mps 579 mmHg 54%

    21 Junio, Viernes

    Tiempo Temperatura Precipitaciones Viento Presión Humedad
    00:00 +23°C° 0 mm 1 mps 579 mmHg 55%
    01:00 +23°C° 0 mm 1 mps 578 mmHg 53%
    02:00 +22°C° 0 mm 1 mps 578 mmHg 52%
    03:00 +22°C° 0 mm 1 mps 577 mmHg 50%
    04:00 +22°C° 0 mm 1 mps 577 mmHg 49%
    05:00 +22°C° 0 mm 1 mps 578 mmHg 47%
    06:00 +22°C° 0 mm 1 mps 578 mmHg 46%
    07:00 +23°C° 0 mm 1 mps 579 mmHg 40%
    08:00 +24°C° 0 mm 1 mps 580 mmHg 34%
    09:00 +26°C° 0 mm 1 mps 580 mmHg 29%
    10:00 +27°C° 0 mm 2 mps 581 mmHg 26%
    11:00 +28°C° 0 mm 2 mps 581 mmHg 22%
    12:00 +29°C° 0 mm 3 mps 581 mmHg 19%
    13:00 +29°C° 0.1 mm 3 mps 581 mmHg 21%
    14:00 +29°C° 0.1 mm 3 mps 580 mmHg 23%
    15:00 +29°C° 0.1 mm 4 mps 580 mmHg 25%
    16:00 +28°C° 0.1 mm 4 mps 579 mmHg 27%
    17:00 +28°C° 0.1 mm 4 mps 579 mmHg 29%
    18:00 +27°C° 0.1 mm 3 mps 579 mmHg 31%
    19:00 +26°C° 0.3 mm 3 mps 579 mmHg 37%
    20:00 +25°C° 0.3 mm 2 mps 579 mmHg 42%
    21:00 +24°C° 0.3 mm 1 mps 579 mmHg 48%
    22:00 +24°C° 0 mm 1 mps 579 mmHg 50%
    23:00 +24°C° 0 mm 1 mps 578 mmHg 53%

    22 Junio, Sábado

    Tiempo Temperatura Precipitaciones Viento Presión Humedad
    00:00 +23°C° 0 mm 1 mps 578 mmHg 55%
    01:00 +23°C° 0 mm 1 mps 578 mmHg 56%
    02:00 +22°C° 0 mm 1 mps 577 mmHg 56%
    03:00 +22°C° 0 mm 1 mps 577 mmHg 57%
    04:00 +20°C° 0 mm 0 mps 577 mmHg 56%
    05:00 +20°C° 0 mm 0 mps 577 mmHg 56%
    06:00 +20°C° 0 mm 0 mps 577 mmHg 56%
    07:00 +23°C° 0 mm 1 mps 578 mmHg 46%
    08:00 +25°C° 0 mm 1 mps 579 mmHg 37%
    09:00 +26°C° 0 mm 1 mps 580 mmHg 28%
    10:00 +27°C° 0 mm 2 mps 580 mmHg 25%
    11:00 +28°C° 0 mm 2 mps 580 mmHg 23%
    12:00 +28°C° 0 mm 3 mps 580 mmHg 20%
    13:00 +29°C° 0 mm 3 mps 580 mmHg 21%
    14:00 +29°C° 0 mm 3 mps 580 mmHg 21%
    15:00 +29°C° 0 mm 4 mps 580 mmHg 22%
    16:00 +29°C° 0 mm 4 mps 579 mmHg 25%
    17:00 +28°C° 0 mm 4 mps 579 mmHg 28%
    18:00 +27°C° 0 mm 4 mps 579 mmHg 31%
    19:00 +27°C° 0 mm 3 mps 579 mmHg 33%
    20:00 +26°C° 0 mm 2 mps 579 mmHg 34%
    21:00 +26°C° 0 mm 2 mps 579 mmHg 36%
    22:00 +25°C° 0 mm 2 mps 579 mmHg 35%
    23:00 +25°C° 0 mm 2 mps 579 mmHg 34%
    Mostrar más